| time (UTC) | temp F | wind direction | speed MPH | gust MPH | rain 1hr in | rain 24hr in | rain mn in | humidity % | barometer mb |
| 20260509143247 | 76 | 341 | 4.0 | 8.0 | 0.00 | 0.00 | 0.00 | 70 | 1010.4 |
| 20260509142736 | 76 | 312 | 3.0 | 9.0 | 0.00 | 0.00 | 0.00 | 72 | 1010.4 |
| 20260509142227 | 76 | 345 | 2.0 | 9.0 | 0.00 | 0.00 | 0.00 | 73 | 1010.4 |
| 20260509141716 | 75 | 321 | 2.0 | 6.0 | 0.00 | 0.00 | 0.00 | 72 | 1010.4 |
| 20260509141206 | 75 | 301 | 2.0 | 9.0 | 0.00 | 0.00 | 0.00 | 75 | 1010.4 |
| 20260509140655 | 74 | 320 | 2.0 | 9.0 | 0.00 | 0.00 | 0.00 | 74 | 1010.4 |
| 20260509140146 | 74 | 313 | 4.0 | 10.0 | 0.00 | 0.00 | 0.00 | 76 | 1010.3 |
| 20260509135636 | 73 | 359 | 4.0 | 10.0 | 0.00 | 0.00 | 0.00 | 76 | 1010.3 |
| 20260509135126 | 73 | 318 | 3.0 | 9.0 | 0.00 | 0.00 | 0.00 | 78 | 1010.2 |
| 20260509135117 | 72 | 351 | 3.0 | 7.0 | 0.00 | 0.00 | 0.00 | 78 | 1010.3 |
| 20260509134107 | 71 | 10 | 3.0 | 7.0 | 0.00 | 0.00 | 0.00 | 79 | 1010.1 |
| 20260509133556 | 71 | 2 | 3.0 | 8.0 | 0.00 | 0.00 | 0.00 | 80 | 1010.1 |
| 20260509133045 | 70 | 336 | 4.0 | 8.0 | 0.00 | 0.00 | 0.00 | 81 | 1010.2 |
| 20260509133034 | 70 | 357 | 4.0 | 10.0 | 0.00 | 0.00 | 0.00 | 81 | 1010.1 |
| 20260509132025 | 70 | 343 | 4.0 | 8.0 | 0.00 | 0.00 | 0.00 | 82 | 1010.1 |
| 20260509131514 | 70 | 349 | 4.0 | 8.0 | 0.00 | 0.00 | 0.00 | 82 | 1010.1 |
| 20260509131005 | 69 | 326 | 3.0 | 8.0 | 0.00 | 0.00 | 0.00 | 83 | 1010.0 |
| 20260509130454 | 69 | 336 | 3.0 | 8.0 | 0.00 | 0.00 | 0.00 | 83 | 1010.1 |
| 20260509130449 | 69 | 337 | 3.0 | 8.0 | 0.00 | 0.00 | 0.00 | 83 | 1010.0 |
| 20260509125934 | 68 | 332 | 4.0 | 11.0 | 0.00 | 0.00 | 0.00 | 83 | 1010.0 |
| 20260509124925 | 68 | 359 | 4.0 | 11.0 | 0.00 | 0.00 | 0.00 | 83 | 1010.0 |
| 20260509124414 | 68 | 347 | 5.0 | 11.0 | 0.00 | 0.00 | 0.00 | 83 | 1010.0 |
| 20260509123905 | 68 | 322 | 4.0 | 11.0 | 0.00 | 0.00 | 0.00 | 83 | 1010.0 |
| 20260509123354 | 68 | 322 | 4.0 | 9.0 | 0.00 | 0.00 | 0.00 | 83 | 1009.9 |
| 20260509122842 | 68 | 298 | 4.0 | 8.0 | 0.00 | 0.00 | 0.00 | 83 | 1009.9 |
| 20260509122332 | 68 | 262 | 4.0 | 8.0 | 0.00 | 0.00 | 0.00 | 83 | 1009.9 |
| 20260509122325 | 68 | 257 | 4.0 | 8.0 | 0.00 | 0.00 | 0.00 | 83 | 1009.8 |
| 20260509121815 | 68 | 332 | 4.0 | 7.0 | 0.00 | 0.00 | 0.00 | 83 | 1009.8 |
| 20260509120805 | 68 | 279 | 3.0 | 5.0 | 0.00 | 0.00 | 0.00 | 83 | 1009.8 |
| 20260509120758 | 68 | 280 | 2.0 | 4.0 | 0.00 | 0.00 | 0.00 | 83 | 1009.7 |
| 20260509120252 | 68 | 253 | 2.0 | 4.0 | 0.00 | 0.00 | 0.00 | 82 | 1009.7 |
| 20260509115249 | 69 | 248 | 1.0 | 3.0 | 0.00 | 0.00 | 0.00 | 82 | 1009.7 |
| 20260509114750 | 69 | 249 | 1.0 | 3.0 | 0.00 | 0.00 | 0.00 | 82 | 1009.6 |
| 20260509114250 | 69 | 249 | 1.0 | 3.0 | 0.00 | 0.00 | 0.00 | 82 | 1009.6 |
| 20260509113751 | 69 | 243 | 2.0 | 4.0 | 0.00 | 0.00 | 0.00 | 82 | 1009.5 |
| 20260509113729 | 69 | 253 | 1.0 | 4.0 | 0.00 | 0.00 | 0.00 | 82 | 1009.4 |
| 20260509113334 | 69 | 246 | 2.0 | 5.0 | 0.00 | 0.00 | 0.00 | 82 | 1009.4 |
| 20260509112717 | 69 | 217 | 1.0 | 4.0 | 0.00 | 0.00 | 0.00 | 82 | 1009.3 |
| 20260509111706 | 69 | 229 | 1.0 | 4.0 | 0.00 | 0.00 | 0.00 | 82 | 1009.2 |
| 20260509111146 | 69 | 214 | 1.0 | 5.0 | 0.00 | 0.00 | 0.00 | 83 | 1009.1 |
| 20260509110636 | 69 | 208 | 2.0 | 6.0 | 0.00 | 0.00 | 0.00 | 83 | 1009.1 |
| 20260509110127 | 69 | 225 | 2.0 | 6.0 | 0.00 | 0.00 | 0.00 | 83 | 1009.0 |
| 20260509105608 | 69 | 186 | 1.0 | 4.0 | 0.00 | 0.00 | 0.00 | 83 | 1009.0 |
| 20260509105058 | 69 | 247 | 2.0 | 5.0 | 0.00 | 0.00 | 0.00 | 83 | 1008.9 |
| 20260509105042 | 69 | 262 | 2.0 | 5.0 | 0.00 | 0.00 | 0.00 | 83 | 1008.9 |
| 20260509104030 | 69 | 252 | 2.0 | 5.0 | 0.00 | 0.00 | 0.00 | 84 | 1008.9 |
| 20260509104021 | 69 | 278 | 2.0 | 5.0 | 0.00 | 0.00 | 0.00 | 84 | 1009.0 |
| 20260509103511 | 69 | 253 | 2.0 | 4.0 | 0.00 | 0.00 | 0.00 | 84 | 1009.0 |
| 20260509102502 | 69 | 245 | 2.0 | 4.0 | 0.00 | 0.00 | 0.00 | 84 | 1008.9 |
| 20260509101944 | 70 | 313 | 1.0 | 4.0 | 0.00 | 0.00 | 0.00 | 85 | 1008.9 |
| 20260509101434 | 69 | 313 | 3.0 | 9.0 | 0.00 | 0.00 | 0.00 | 85 | 1008.9 |
| 20260509100924 | 69 | 311 | 4.0 | 9.0 | 0.00 | 0.00 | 0.00 | 85 | 1009.0 |
| 20260509100916 | 69 | 351 | 5.0 | 9.0 | 0.00 | 0.00 | 0.00 | 85 | 1009.0 |
| 20260509095905 | 69 | 13 | 4.0 | 11.0 | 0.00 | 0.00 | 0.00 | 85 | 1009.0 |
| 20260509095356 | 69 | 348 | 5.0 | 10.0 | 0.00 | 0.00 | 0.00 | 85 | 1008.4 |
| 20260509095347 | 69 | 20 | 5.0 | 13.0 | 0.00 | 0.00 | 0.00 | 85 | 1008.0 |
| 20260509094836 | 69 | 357 | 4.0 | 13.0 | 0.00 | 0.00 | 0.00 | 85 | 1007.8 |
| 20260509093826 | 69 | 186 | 6.0 | 16.0 | 0.00 | 0.00 | 0.00 | 85 | 1006.9 |
| 20260509093316 | 69 | 178 | 7.0 | 16.0 | 0.00 | 0.00 | 0.00 | 85 | 1006.8 |
| 20260509092804 | 69 | 172 | 7.0 | 15.0 | 0.00 | 0.00 | 0.00 | 85 | 1006.5 |
| 20260509092256 | 69 | 218 | 7.0 | 17.0 | 0.00 | 0.00 | 0.00 | 85 | 1006.3 |
| 20260509091752 | 69 | 170 | 8.0 | 17.0 | 0.00 | 0.00 | 0.00 | 85 | 1006.3 |
| 20260509091249 | 69 | 195 | 7.0 | 15.0 | 0.00 | 0.00 | 0.00 | 85 | 1006.5 |
| 20260509090741 | 69 | 181 | 8.0 | 17.0 | 0.00 | 0.00 | 0.00 | 85 | 1006.5 |
| 20260509090236 | 69 | 216 | 8.0 | 17.0 | 0.00 | 0.00 | 0.00 | 85 | 1006.7 |
| 20260509085731 | 69 | 182 | 7.0 | 18.0 | 0.00 | 0.00 | 0.00 | 85 | 1006.8 |
| 20260509085229 | 69 | 206 | 8.0 | 18.0 | 0.00 | 0.00 | 0.00 | 85 | 1006.9 |
| 20260509084726 | 69 | 202 | 9.0 | 19.0 | 0.00 | 0.00 | 0.00 | 85 | 1006.8 |
| 20260509084220 | 69 | 214 | 9.0 | 20.0 | 0.00 | 0.00 | 0.00 | 85 | 1006.6 |
| 20260509083713 | 69 | 140 | 8.0 | 20.0 | 0.00 | 0.00 | 0.00 | 85 | 1006.4 |
| 20260509083205 | 69 | 161 | 8.0 | 19.0 | 0.00 | 0.00 | 0.00 | 85 | 1006.7 |
| 20260509082702 | 69 | 218 | 8.0 | 19.0 | 0.00 | 0.00 | 0.00 | 85 | 1007.1 |
| 20260509082157 | 69 | 126 | 8.0 | 19.0 | 0.00 | 0.00 | 0.00 | 85 | 1007.4 |
| 20260509081653 | 69 | 211 | 7.0 | 19.0 | 0.00 | 0.00 | 0.00 | 84 | 1007.6 |
| 20260509081150 | 69 | 141 | 5.0 | 12.0 | 0.00 | 0.00 | 0.00 | 84 | 1007.9 |
| 20260509080647 | 69 | 132 | 4.0 | 11.0 | 0.00 | 0.00 | 0.00 | 84 | 1008.4 |
| 20260509080142 | 69 | 207 | 4.0 | 11.0 | 0.00 | 0.00 | 0.00 | 84 | 1008.7 |
| 20260509075638 | 69 | 193 | 4.0 | 11.0 | 0.00 | 0.00 | 0.00 | 84 | 1008.9 |
| 20260509075131 | 69 | 177 | 3.0 | 9.0 | 0.00 | 0.00 | 0.00 | 84 | 1009.3 |
| 20260509074626 | 69 | 225 | 3.0 | 8.0 | 0.00 | 0.00 | 0.00 | 84 | 1009.5 |
| 20260509074620 | 69 | 262 | 3.0 | 7.0 | 0.00 | 0.00 | 0.00 | 84 | 1009.7 |
| 20260509074112 | 69 | 208 | 3.0 | 9.0 | 0.00 | 0.00 | 0.00 | 84 | 1009.7 |
| 20260509073107 | 69 | 292 | 3.0 | 10.0 | 0.00 | 0.00 | 0.00 | 84 | 1010.1 |
| 20260509072600 | 69 | 192 | 3.0 | 10.0 | 0.00 | 0.00 | 0.00 | 84 | 1010.3 |
| 20260509072054 | 69 | 235 | 3.0 | 11.0 | 0.00 | 0.00 | 0.00 | 84 | 1010.3 |
| 20260509071548 | 69 | 283 | 4.0 | 11.0 | 0.00 | 0.00 | 0.00 | 84 | 1010.5 |
| 20260509071041 | 69 | 293 | 4.0 | 9.0 | 0.00 | 0.00 | 0.00 | 84 | 1010.8 |
| 20260509070532 | 69 | 286 | 4.0 | 9.0 | 0.00 | 0.00 | 0.00 | 84 | 1011.1 |
| 20260509070025 | 69 | 254 | 4.0 | 9.0 | 0.00 | 0.00 | 0.00 | 84 | 1011.2 |
| 20260509065520 | 69 | 307 | 4.0 | 10.0 | 0.00 | 0.00 | 0.00 | 84 | 1011.0 |
| 20260509065003 | 69 | 284 | 3.0 | 7.0 | 0.00 | 0.00 | 0.00 | 83 | 1011.0 |
| 20260509064455 | 69 | 262 | 2.0 | 5.0 | 0.00 | 0.00 | 0.00 | 83 | 1010.7 |
| 20260509063947 | 69 | 284 | 1.0 | 5.0 | 0.00 | 0.00 | 0.00 | 83 | 1010.7 |
| 20260509063439 | 69 | 1 | 0.0 | 3.0 | 0.00 | 0.00 | 0.00 | 83 | 1010.6 |
| 20260509062931 | 69 | 3 | 0.0 | 1.0 | 0.00 | 0.00 | 0.00 | 83 | 1010.6 |
| 20260509062423 | 69 | 3 | 0.0 | 1.0 | 0.00 | 0.00 | 0.00 | 83 | 1010.6 |
| 20260509061914 | 69 | 3 | 0.0 | 1.0 | 0.00 | 0.00 | 0.00 | 83 | 1010.7 |
| 20260509061904 | 69 | 3 | 0.0 | 1.0 | 0.00 | 0.00 | 0.00 | 83 | 1010.8 |
| 20260509061353 | 69 | 3 | 1.0 | 2.0 | 0.00 | 0.00 | 0.00 | 83 | 1011.0 |
| 20260509060343 | 70 | 3 | 0.0 | 4.0 | 0.00 | 0.00 | 0.00 | 83 | 1011.1 |
| 20260509055832 | 70 | 3 | 1.0 | 4.0 | 0.00 | 0.00 | 0.00 | 83 | 1010.6 |
| 20260509055323 | 70 | 3 | 2.0 | 7.0 | 0.00 | 0.00 | 0.00 | 83 | 1010.8 |
| 20260509054814 | 70 | 24 | 2.0 | 7.0 | 0.00 | 0.00 | 0.00 | 83 | 1011.0 |
| 20260509054304 | 70 | 11 | 3.0 | 7.0 | 0.00 | 0.00 | 0.00 | 82 | 1011.1 |
| 20260509053754 | 70 | 357 | 3.0 | 7.0 | 0.00 | 0.00 | 0.00 | 82 | 1011.0 |
| 20260509053243 | 70 | 28 | 3.0 | 8.0 | 0.00 | 0.00 | 0.00 | 81 | 1010.7 |
| 20260509052734 | 70 | 26 | 2.0 | 6.0 | 0.00 | 0.00 | 0.00 | 81 | 1010.7 |
| 20260509052223 | 70 | 82 | 0.0 | 0.0 | 0.00 | 0.00 | 0.00 | 81 | 1010.2 |
| 20260509051713 | 70 | 161 | 0.0 | 0.0 | 0.00 | 0.00 | 0.00 | 81 | 1009.9 |
| 20260509051204 | 70 | 164 | 0.0 | 0.0 | 0.00 | 0.00 | 0.00 | 80 | 1009.9 |
| 20260509050653 | 70 | 162 | 0.0 | 0.0 | 0.00 | 0.00 | 0.00 | 80 | 1010.0 |
| 20260509050143 | 70 | 160 | 0.0 | 2.0 | 0.00 | 0.00 | 0.00 | 80 | 1009.9 |
| 20260509045628 | 71 | 161 | 1.0 | 3.0 | 0.00 | 0.00 | 0.00 | 80 | 1009.8 |
| 20260509045118 | 71 | 161 | 1.0 | 3.0 | 0.00 | 0.00 | 0.00 | 80 | 1009.8 |
| 20260509044608 | 71 | 173 | 1.0 | 4.0 | 0.00 | 0.00 | 0.00 | 80 | 1009.7 |
| 20260509044059 | 71 | 178 | 1.0 | 4.0 | 0.00 | 0.00 | 0.00 | 80 | 1009.8 |
| 20260509043548 | 71 | 164 | 2.0 | 3.0 | 0.00 | 0.00 | 0.00 | 80 | 1009.8 |
| 20260509043038 | 71 | 162 | 2.0 | 7.0 | 0.00 | 0.00 | 0.00 | 80 | 1009.9 |
| 20260509042528 | 71 | 163 | 3.0 | 7.0 | 0.00 | 0.00 | 0.00 | 80 | 1010.0 |
| 20260509042017 | 71 | 158 | 1.0 | 5.0 | 0.00 | 0.00 | 0.00 | 79 | 1010.0 |
| 20260509041508 | 71 | 105 | 0.0 | 3.0 | 0.00 | 0.00 | 0.00 | 79 | 1010.2 |
| 20260509041459 | 71 | 120 | 0.0 | 0.0 | 0.00 | 0.00 | 0.00 | 79 | 1010.5 |
| 20260509040448 | 71 | 119 | 0.0 | 0.0 | 0.00 | 0.00 | 0.00 | 79 | 1010.4 |
| 20260509040439 | 72 | 118 | 0.0 | 4.0 | 0.00 | 0.00 | 0.00 | 78 | 1010.2 |
| 20260509035929 | 72 | 118 | 0.0 | 4.0 | 0.00 | 0.00 | 0.00 | 78 | 1010.2 |
| 20260509034918 | 72 | 118 | 1.0 | 6.0 | 0.00 | 0.00 | 0.00 | 78 | 1010.0 |
| 20260509034408 | 72 | 137 | 2.0 | 8.0 | 0.00 | 0.00 | 0.00 | 78 | 1009.9 |
| 20260509034400 | 72 | 130 | 3.0 | 8.0 | 0.00 | 0.00 | 0.00 | 78 | 1009.6 |
| 20260509033348 | 72 | 141 | 1.0 | 8.0 | 0.00 | 0.00 | 0.00 | 78 | 1009.5 |
| 20260509033339 | 72 | 122 | 2.0 | 7.0 | 0.00 | 0.00 | 0.00 | 78 | 1009.4 |
| 20260509032328 | 72 | 109 | 3.0 | 10.0 | 0.00 | 0.00 | 0.00 | 77 | 1009.3 |
| 20260509032319 | 72 | 143 | 3.0 | 10.0 | 0.00 | 0.00 | 0.00 | 77 | 1009.2 |
| 20260509031808 | 72 | 160 | 4.0 | 9.0 | 0.00 | 0.00 | 0.00 | 77 | 1009.0 |
| 20260509030758 | 72 | 136 | 3.0 | 9.0 | 0.00 | 0.00 | 0.00 | 77 | 1009.0 |
| 20260509030248 | 72 | 152 | 4.0 | 8.0 | 0.00 | 0.00 | 0.00 | 77 | 1009.1 |
| 20260509030240 | 72 | 155 | 4.0 | 10.0 | 0.00 | 0.00 | 0.00 | 77 | 1009.0 |
| 20260509025228 | 73 | 153 | 3.0 | 10.0 | 0.00 | 0.00 | 0.00 | 77 | 1008.9 |
| 20260509024718 | 73 | 138 | 3.0 | 8.0 | 0.00 | 0.00 | 0.00 | 77 | 1008.8 |
| 20260509024208 | 73 | 125 | 3.0 | 7.0 | 0.00 | 0.00 | 0.00 | 77 | 1008.6 |
| 20260509023651 | 73 | 111 | 4.0 | 10.0 | 0.00 | 0.00 | 0.00 | 77 | 1008.5 |
| 20260509023132 | 73 | 157 | 5.0 | 10.0 | 0.00 | 0.00 | 0.00 | 76 | 1008.4 |
| 20260509022623 | 73 | 130 | 4.0 | 9.0 | 0.00 | 0.00 | 0.00 | 76 | 1008.5 |
| 20260509022116 | 73 | 163 | 4.0 | 7.0 | 0.00 | 0.00 | 0.00 | 76 | 1008.6 |
| 20260509021610 | 73 | 141 | 3.0 | 7.0 | 0.00 | 0.00 | 0.00 | 76 | 1008.5 |
| 20260509021102 | 73 | 145 | 3.0 | 7.0 | 0.00 | 0.00 | 0.00 | 76 | 1008.6 |
| 20260509020552 | 73 | 135 | 2.0 | 7.0 | 0.00 | 0.00 | 0.00 | 76 | 1008.6 |
| 20260509020042 | 73 | 141 | 2.0 | 5.0 | 0.00 | 0.00 | 0.00 | 76 | 1008.6 |
| 20260509015532 | 73 | 141 | 2.0 | 5.0 | 0.00 | 0.00 | 0.00 | 76 | 1008.7 |
| 20260509015023 | 73 | 138 | 1.0 | 5.0 | 0.00 | 0.00 | 0.00 | 76 | 1008.7 |
| 20260509014514 | 73 | 115 | 0.0 | 4.0 | 0.00 | 0.00 | 0.00 | 76 | 1008.7 |
| 20260509014012 | 73 | 116 | 1.0 | 4.0 | 0.00 | 0.00 | 0.00 | 75 | 1008.6 |
| 20260509013508 | 73 | 96 | 1.0 | 4.0 | 0.00 | 0.00 | 0.00 | 75 | 1008.6 |
| 20260509013007 | 73 | 130 | 1.0 | 4.0 | 0.00 | 0.00 | 0.00 | 75 | 1008.6 |
| 20260509012507 | 73 | 139 | 1.0 | 4.0 | 0.00 | 0.00 | 0.00 | 75 | 1008.5 |
| 20260509012005 | 73 | 138 | 1.0 | 5.0 | 0.00 | 0.00 | 0.00 | 75 | 1008.5 |
| 20260509011510 | 73 | 173 | 1.0 | 3.0 | 0.00 | 0.00 | 0.00 | 75 | 1008.3 |
| 20260509011504 | 73 | 142 | 1.0 | 5.0 | 0.00 | 0.00 | 0.00 | 75 | 1008.4 |
| 20260509010502 | 73 | 157 | 1.0 | 3.0 | 0.00 | 0.00 | 0.00 | 74 | 1008.3 |
| 20260509010004 | 73 | 155 | 2.0 | 4.0 | 0.00 | 0.00 | 0.00 | 74 | 1008.2 |
| 20260509005456 | 73 | 149 | 3.0 | 6.0 | 0.00 | 0.00 | 0.00 | 74 | 1008.1 |
| 20260509004950 | 73 | 144 | 2.0 | 6.0 | 0.00 | 0.00 | 0.00 | 74 | 1008.0 |
| 20260509004441 | 73 | 147 | 2.0 | 5.0 | 0.00 | 0.00 | 0.00 | 74 | 1007.9 |
| 20260509003936 | 73 | 146 | 2.0 | 5.0 | 0.00 | 0.00 | 0.00 | 74 | 1007.9 |
| 20260509003436 | 73 | 141 | 3.0 | 7.0 | 0.00 | 0.00 | 0.00 | 73 | 1007.7 |
| 20260509003432 | 73 | 145 | 2.0 | 7.0 | 0.00 | 0.00 | 0.00 | 74 | 1007.8 |
| 20260509002425 | 74 | 159 | 2.0 | 6.0 | 0.00 | 0.00 | 0.00 | 73 | 1007.8 |
| 20260509001922 | 74 | 126 | 2.0 | 8.0 | 0.00 | 0.00 | 0.00 | 73 | 1007.9 |
| 20260509001422 | 74 | 186 | 3.0 | 6.0 | 0.00 | 0.00 | 0.00 | 73 | 1007.9 |
| 20260509001417 | 74 | 157 | 3.0 | 8.0 | 0.00 | 0.00 | 0.00 | 73 | 1008.0 |
| 20260509000913 | 74 | 132 | 3.0 | 6.0 | 0.00 | 0.00 | 0.00 | 73 | 1007.9 |
| 20260509000524 | 74 | 147 | 3.0 | 7.0 | 0.00 | 0.00 | 0.00 | 73 | 1008.1 |
| 20260508235907 | 73 | 155 | 2.0 | 7.0 | 0.00 | 0.00 | 0.00 | 73 | 1008.2 |
| 20260508235358 | 73 | 120 | 0.0 | 3.0 | 0.00 | 0.00 | 0.00 | 73 | 1008.2 |
| 20260508234349 | 73 | 152 | 1.0 | 4.0 | 0.00 | 0.00 | 0.00 | 73 | 1008.3 |
| 20260508233842 | 73 | 153 | 1.0 | 4.0 | 0.00 | 0.00 | 0.00 | 72 | 1008.2 |
| 20260508233333 | 73 | 158 | 2.0 | 6.0 | 0.00 | 0.00 | 0.00 | 72 | 1008.3 |
| 20260508232827 | 73 | 153 | 3.0 | 9.0 | 0.00 | 0.00 | 0.00 | 73 | 1008.3 |
| 20260508232319 | 73 | 181 | 2.0 | 9.0 | 0.00 | 0.00 | 0.00 | 72 | 1008.2 |
| 20260508231810 | 73 | 159 | 2.0 | 6.0 | 0.00 | 0.00 | 0.00 | 72 | 1008.3 |
| 20260508231803 | 73 | 141 | 3.0 | 5.0 | 0.00 | 0.00 | 0.00 | 72 | 1008.3 |
| 20260508231253 | 73 | 124 | 4.0 | 9.0 | 0.00 | 0.00 | 0.00 | 72 | 1008.2 |
| 20260508230244 | 73 | 185 | 4.0 | 9.0 | 0.00 | 0.00 | 0.00 | 71 | 1008.2 |
| 20260508225725 | 73 | 161 | 4.0 | 10.0 | 0.00 | 0.00 | 0.00 | 71 | 1008.2 |
| 20260508225215 | 74 | 164 | 4.0 | 10.0 | 0.00 | 0.00 | 0.00 | 70 | 1008.2 |
| 20260508224705 | 74 | 180 | 4.0 | 9.0 | 0.00 | 0.00 | 0.00 | 71 | 1008.2 |
| 20260508224155 | 74 | 186 | 5.0 | 14.0 | 0.00 | 0.00 | 0.00 | 71 | 1008.2 |
| 20260508224147 | 74 | 170 | 5.0 | 11.0 | 0.00 | 0.00 | 0.00 | 71 | 1008.2 |
| 20260508223135 | 73 | 192 | 5.0 | 12.0 | 0.00 | 0.00 | 0.00 | 71 | 1008.2 |
| 20260508222625 | 73 | 137 | 5.0 | 12.0 | 0.00 | 0.00 | 0.00 | 70 | 1008.3 |
| 20260508222125 | 74 | 197 | 4.0 | 11.0 | 0.00 | 0.00 | 0.00 | 71 | 1008.3 |
| 20260508221615 | 73 | 139 | 5.0 | 11.0 | 0.00 | 0.00 | 0.00 | 70 | 1008.4 |
| 20260508221106 | 73 | 168 | 5.0 | 11.0 | 0.00 | 0.00 | 0.00 | 70 | 1008.4 |
| 20260508220555 | 73 | 156 | 5.0 | 11.0 | 0.00 | 0.00 | 0.00 | 70 | 1008.5 |
| 20260508220044 | 73 | 151 | 5.0 | 12.0 | 0.00 | 0.00 | 0.00 | 70 | 1008.5 |
| 20260508215535 | 72 | 147 | 5.0 | 13.0 | 0.00 | 0.00 | 0.00 | 70 | 1008.6 |
| 20260508215026 | 73 | 142 | 5.0 | 13.0 | 0.00 | 0.00 | 0.00 | 68 | 1008.7 |
| 20260508214525 | 73 | 139 | 5.0 | 11.0 | 0.00 | 0.00 | 0.00 | 67 | 1008.8 |
| 20260508214015 | 73 | 161 | 4.0 | 11.0 | 0.00 | 0.00 | 0.00 | 69 | 1008.8 |
| 20260508213505 | 72 | 144 | 3.0 | 8.0 | 0.00 | 0.00 | 0.00 | 72 | 1008.8 |
| 20260508212955 | 71 | 154 | 4.0 | 10.0 | 0.00 | 0.00 | 0.00 | 72 | 1009.0 |
| 20260508212445 | 71 | 232 | 5.0 | 10.0 | 0.00 | 0.00 | 0.00 | 72 | 1009.2 |
| 20260508211935 | 72 | 232 | 5.0 | 11.0 | 0.00 | 0.00 | 0.00 | 70 | 1009.3 |
| 20260508211425 | 72 | 202 | 5.0 | 11.0 | 0.00 | 0.00 | 0.00 | 69 | 1009.3 |
| 20260508210916 | 73 | 197 | 4.0 | 10.0 | 0.00 | 0.00 | 0.00 | 69 | 1009.4 |
| 20260508210455 | 72 | 151 | 3.0 | 9.0 | 0.00 | 0.00 | 0.00 | 69 | 1009.5 |
| 20260508205954 | 71 | 193 | 3.0 | 9.0 | 0.00 | 0.00 | 0.00 | 71 | 1009.4 |
| 20260508204838 | 70 | 144 | 2.0 | 8.0 | 0.00 | 0.00 | 0.00 | 74 | 1009.3 |
| 20260508204327 | 70 | 42 | 4.0 | 11.0 | 0.00 | 0.00 | 0.00 | 74 | 1009.4 |
| 20260508203817 | 70 | 219 | 5.0 | 11.0 | 0.00 | 0.00 | 0.00 | 72 | 1010.1 |
| 20260508203307 | 70 | 87 | 4.0 | 10.0 | 0.00 | 0.00 | 0.00 | 71 | 1008.2 |
| 20260508202757 | 71 | 104 | 2.0 | 9.0 | 0.00 | 0.00 | 0.00 | 70 | 1009.5 |
| 20260508202748 | 71 | 159 | 2.0 | 4.0 | 0.00 | 0.00 | 0.00 | 69 | 1010.0 |
| 20260508201737 | 71 | 146 | 2.0 | 10.0 | 0.00 | 0.00 | 0.00 | 68 | 1010.2 |
| 20260508201227 | 71 | 132 | 3.0 | 10.0 | 0.00 | 0.00 | 0.00 | 67 | 1010.1 |
| 20260508200717 | 71 | 177 | 4.0 | 10.0 | 0.00 | 0.00 | 0.00 | 66 | 1010.7 |
| 20260508200208 | 71 | 175 | 4.0 | 10.0 | 0.00 | 0.00 | 0.00 | 65 | 1011.0 |
| 20260508195655 | 72 | 209 | 3.0 | 9.0 | 0.00 | 0.00 | 0.00 | 65 | 1011.1 |
| 20260508195155 | 72 | 155 | 3.0 | 13.0 | 0.00 | 0.00 | 0.00 | 66 | 1011.0 |
| 20260508194646 | 72 | 242 | 4.0 | 13.0 | 0.00 | 0.00 | 0.00 | 66 | 1011.0 |
| 20260508194147 | 72 | 247 | 4.0 | 8.0 | 0.00 | 0.00 | 0.00 | 65 | 1010.6 |
| 20260508193637 | 72 | 207 | 4.0 | 11.0 | 0.00 | 0.00 | 0.00 | 65 | 1010.7 |
| 20260508193629 | 72 | 179 | 4.0 | 11.0 | 0.00 | 0.00 | 0.00 | 65 | 1010.6 |
| 20260508193117 | 73 | 151 | 5.0 | 10.0 | 0.00 | 0.00 | 0.00 | 65 | 1010.6 |
| 20260508192608 | 73 | 188 | 5.0 | 10.0 | 0.00 | 0.00 | 0.00 | 64 | 1010.6 |
| 20260508191557 | 73 | 160 | 4.0 | 13.0 | 0.00 | 0.00 | 0.00 | 64 | 1010.7 |
| 20260508191046 | 73 | 245 | 5.0 | 13.0 | 0.00 | 0.00 | 0.00 | 65 | 1011.0 |
| 20260508190529 | 73 | 192 | 5.0 | 11.0 | 0.00 | 0.00 | 0.00 | 65 | 1011.0 |
| 20260508190019 | 73 | 186 | 5.0 | 13.0 | 0.00 | 0.00 | 0.00 | 64 | 1011.1 |
| 20260508190010 | 73 | 180 | 6.0 | 11.0 | 0.00 | 0.00 | 0.00 | 64 | 1011.1 |
| 20260508185000 | 73 | 134 | 5.0 | 12.0 | 0.00 | 0.00 | 0.00 | 64 | 1011.1 |
| 20260508184449 | 73 | 182 | 5.0 | 12.0 | 0.00 | 0.00 | 0.00 | 64 | 1011.2 |
| 20260508183939 | 73 | 167 | 5.0 | 13.0 | 0.00 | 0.00 | 0.00 | 64 | 1011.2 |
| 20260508183429 | 73 | 168 | 5.0 | 13.0 | 0.00 | 0.00 | 0.00 | 64 | 1011.3 |
| 20260508182919 | 73 | 184 | 5.0 | 11.0 | 0.00 | 0.00 | 0.00 | 64 | 1011.4 |
| 20260508182409 | 73 | 134 | 5.0 | 11.0 | 0.00 | 0.00 | 0.00 | 62 | 1011.4 |
| 20260508181900 | 75 | 110 | 4.0 | 11.0 | 0.00 | 0.00 | 0.00 | 62 | 1011.5 |
| 20260508181349 | 75 | 173 | 3.0 | 9.0 | 0.00 | 0.00 | 0.00 | 62 | 1011.5 |
| 20260508180839 | 75 | 186 | 4.0 | 10.0 | 0.00 | 0.00 | 0.00 | 63 | 1011.5 |
| 20260508180329 | 74 | 120 | 4.0 | 10.0 | 0.00 | 0.00 | 0.00 | 63 | 1011.4 |
| 20260508175819 | 74 | 124 | 2.0 | 7.0 | 0.00 | 0.00 | 0.00 | 62 | 1011.5 |
| 20260508175309 | 74 | 84 | 3.0 | 9.0 | 0.00 | 0.00 | 0.00 | 64 | 1011.6 |
| 20260508174809 | 73 | 145 | 4.0 | 9.0 | 0.00 | 0.00 | 0.00 | 65 | 1011.9 |
| 20260508174259 | 73 | 135 | 4.0 | 12.0 | 0.00 | 0.00 | 0.00 | 64 | 1012.0 |
| 20260508173751 | 72 | 151 | 5.0 | 12.0 | 0.00 | 0.00 | 0.00 | 63 | 1012.1 |
| 20260508173233 | 71 | 103 | 5.0 | 10.0 | 0.00 | 0.00 | 0.00 | 65 | 1012.2 |
| 20260508172723 | 71 | 133 | 4.0 | 8.0 | 0.00 | 0.00 | 0.00 | 66 | 1012.3 |
| 20260508172214 | 71 | 130 | 3.0 | 7.0 | 0.00 | 0.00 | 0.00 | 65 | 1012.4 |
| 20260508171655 | 71 | 180 | 4.0 | 8.0 | 0.00 | 0.00 | 0.00 | 66 | 1012.5 |
| 20260508171146 | 71 | 176 | 4.0 | 8.0 | 0.00 | 0.00 | 0.00 | 65 | 1012.5 |
| 20260508170635 | 71 | 128 | 3.0 | 8.0 | 0.00 | 0.00 | 0.00 | 64 | 1012.5 |
| 20260508170126 | 72 | 201 | 3.0 | 9.0 | 0.00 | 0.00 | 0.00 | 64 | 1012.7 |
| 20260508165615 | 72 | 229 | 4.0 | 9.0 | 0.00 | 0.00 | 0.00 | 65 | 1012.7 |
| 20260508165608 | 71 | 143 | 5.0 | 11.0 | 0.00 | 0.00 | 0.00 | 66 | 1012.7 |
| 20260508164557 | 71 | 156 | 4.0 | 11.0 | 0.00 | 0.00 | 0.00 | 65 | 1012.8 |
| 20260508164548 | 70 | 99 | 4.0 | 9.0 | 0.00 | 0.00 | 0.00 | 64 | 1012.8 |
| 20260508163537 | 70 | 105 | 2.0 | 8.0 | 0.00 | 0.00 | 0.00 | 63 | 1012.8 |
| 20260508163030 | 70 | 147 | 2.0 | 9.0 | 0.00 | 0.00 | 0.00 | 66 | 1012.9 |
| 20260508162524 | 69 | 134 | 3.0 | 9.0 | 0.00 | 0.00 | 0.00 | 66 | 1013.1 |
| 20260508162010 | 68 | 147 | 4.0 | 10.0 | 0.00 | 0.00 | 0.00 | 65 | 1013.2 |
| 20260508161949 | 67 | 161 | 4.0 | 9.0 | 0.00 | 0.00 | 0.00 | 68 | 1013.2 |
| 20260508161554 | 68 | 105 | 4.0 | 10.0 | 0.00 | 0.00 | 0.00 | 68 | 1013.2 |
| 20260508160439 | 67 | 159 | 4.0 | 9.0 | 0.00 | 0.00 | 0.00 | 67 | 1013.3 |
| 20260508155934 | 67 | 189 | 4.0 | 8.0 | 0.00 | 0.00 | 0.00 | 68 | 1013.6 |
| 20260508155429 | 67 | 120 | 4.0 | 11.0 | 0.00 | 0.00 | 0.00 | 68 | 1013.7 |
| 20260508154930 | 67 | 153 | 3.0 | 8.0 | 0.00 | 0.00 | 0.00 | 68 | 1013.9 |
| 20260508154924 | 67 | 130 | 3.0 | 11.0 | 0.00 | 0.00 | 0.00 | 68 | 1013.8 |
| 20260508154419 | 67 | 147 | 3.0 | 9.0 | 0.00 | 0.00 | 0.00 | 69 | 1013.8 |
| 20260508153409 | 67 | 226 | 3.0 | 10.0 | 0.00 | 0.00 | 0.00 | 68 | 1013.9 |
| 20260508153401 | 66 | 176 | 3.0 | 10.0 | 0.00 | 0.00 | 0.00 | 69 | 1014.0 |
| 20260508152854 | 66 | 174 | 4.0 | 9.0 | 0.00 | 0.00 | 0.00 | 68 | 1014.0 |
| 20260508151857 | 66 | 149 | 4.0 | 8.0 | 0.00 | 0.00 | 0.00 | 68 | 1013.9 |
| 20260508151851 | 66 | 140 | 4.0 | 8.0 | 0.00 | 0.00 | 0.00 | 68 | 1014.0 |
| 20260508150853 | 66 | 152 | 3.0 | 7.0 | 0.00 | 0.00 | 0.00 | 68 | 1013.9 |
| 20260508150355 | 66 | 147 | 3.0 | 8.0 | 0.00 | 0.00 | 0.00 | 67 | 1014.0 |
| 20260508150351 | 66 | 183 | 3.0 | 7.0 | 0.00 | 0.00 | 0.00 | 67 | 1014.0 |
| 20260508145848 | 66 | 136 | 3.0 | 8.0 | 0.00 | 0.00 | 0.00 | 67 | 1014.0 |
| 20260508144841 | 66 | 159 | 3.0 | 7.0 | 0.00 | 0.00 | 0.00 | 67 | 1014.0 |
| 20260508144335 | 66 | 187 | 4.0 | 7.0 | 0.00 | 0.00 | 0.00 | 67 | 1014.0 |
| 20260508143828 | 66 | 134 | 4.0 | 9.0 | 0.00 | 0.00 | 0.00 | 66 | 1013.9 |